sat.trackr.live / text

‹ back to catalog

GHGSAT-C7

NORAD 56209 · 2023-054AH

PAYLOAD ACTIVE UNKNOWN

§ Identity

Operator
Country
CA
Launch date
2023-04-15
Launch site
AFWTR
Launch vehicle
Mass (kg)
RCS (m²)

External: N2YO · Heavens-Above · Gunter

§ Orbital elements

Epoch: 2026-05-25T04:59:59.457984Z

Period
92.94 min
Inclination
97.3022°
Eccentricity
0.0009820
Mean motion
15.49325522 rev/d
Perigee alt
412.0 km
Apogee alt
425.4 km
Semi-major
6,796.8 km
B*
1.9118e-4
RAAN
53.2947°
Arg perigee
112.1075°
Mean anomaly
248.1219°
Rev number
17,483

§ Raw data

GHGSAT-C71 56209U 23054AH  26145.20832706  .00010389  00000+0  19118-3 0  99952 56209  97.3022  53.2947 0009820 112.1075 248.1219 15.49325522174831

JSON: /api/v1/satellites/56209 · /tle

For live sub-satellite position, see the globe view (requires WebGL).

§ Visibility from observer

Set your observer location to see the next 7 days of passes ≥ 10°. The values pass through the URL so the page stays shareable.

No JS? Fill the form by hand. The geolocation button needs JavaScript.